This demonstration page uses our WeatherBlox Daily Observations layout. Learn more.

Left ArrowRight Arrow

Hourly Observations for July 1, 2017

Temp ( °F °C ) Dew Point ( °F °C ) Humidity (%) Winds ( mph kmh ) Pressure ( in mb ) Visibility ( mi km ) Precip ( " mm )
12:07 am 00:07 Cloudy 66 19 66 19 100 100 S 5 7 29.91 1013 10 16 N/A
12:27 am 00:27 Mostly Cloudy 66 19 66 19 100 100 S 3 6 29.91 1013 10 16 N/A
12:47 am 00:47 Cloudy 66 19 66 19 100 100 SSW 5 7 29.91 1013 10 16 N/A
1:07 am 01:07 Partly Cloudy 66 19 66 19 100 100 S 5 7 29.91 1013 10 16 N/A
1:27 am 01:27 Partly Cloudy 66 19 66 19 100 100 S 3 6 29.91 1013 7 11 N/A
1:47 am 01:47 Mostly Cloudy 66 19 66 19 100 100 SSW 6 9 29.88 1012 5 8 N/A
2:07 am 02:07 Cloudy 66 19 66 19 100 100 SW 6 9 29.88 1012 4 6 N/A
2:27 am 02:27 Cloudy 66 19 66 19 100 100 WSW 7 11 29.88 1012 3 5 N/A
2:47 am 02:47 Cloudy 66 19 66 19 100 100 SW 8 13 29.91 1013 2 2 N/A
3:07 am 03:07 Cloudy 66 19 66 19 100 100 WSW 7 11 29.88 1012 1 1 N/A
3:27 am 03:27 Cloudy 68 20 66 19 94 94 WSW 8 13 29.88 1012 1 2 N/A
3:47 am 03:47 Cloudy 68 20 66 19 94 94 WSW 7 11 29.85 1011 3 5 N/A
4:07 am 04:07 Cloudy 68 20 68 20 100 100 WSW 7 11 29.85 1011 3 5 N/A
4:27 am 04:27 Cloudy 68 20 68 20 100 100 SW 8 13 29.88 1012 4 6 N/A
4:48 am 04:48 Cloudy 68 20 68 20 100 100 WSW 5 7 29.88 1012 4 6 N/A
5:07 am 05:07 Cloudy 68 20 68 20 100 100 WSW 5 7 29.88 1012 4 6 N/A
5:27 am 05:27 Cloudy 68 20 66 19 94 94 WSW 7 11 29.88 1012 4 6 N/A
5:47 am 05:47 Cloudy 68 20 68 20 100 100 WSW 8 13 29.88 1012 4 6 N/A
6:07 am 06:07 Cloudy 68 20 68 20 100 100 WSW 7 11 29.88 1012 4 6 N/A
6:28 am 06:28 Cloudy 68 20 68 20 100 100 WSW 8 13 29.88 1012 4 6 N/A
6:47 am 06:47 Cloudy 68 20 68 20 100 100 SW 6 9 29.88 1012 5 8 N/A
7:07 am 07:07 Cloudy 68 20 68 20 100 100 SW 6 9 29.88 1012 4 6 N/A
7:28 am 07:28 Cloudy 68 20 68 20 100 100 WSW 7 11 29.94 1014 4 6 N/A
7:47 am 07:47 Cloudy 68 20 68 20 100 100 SW 7 11 29.94 1014 4 6 N/A
8:07 am 08:07 Cloudy 68 20 68 20 100 100 SW 7 11 29.94 1014 5 8 N/A
8:27 am 08:27 Cloudy 70 21 68 20 94 94 WSW 9 15 29.94 1014 5 8 N/A
8:47 am 08:47 Mostly Cloudy 70 21 68 20 94 94 WSW 6 9 29.94 1014 7 11 N/A
9:07 am 09:07 Partly Cloudy 70 21 68 20 94 94 WSW 8 13 29.94 1014 7 11 N/A
9:27 am 09:27 Mostly Cloudy 72 22 68 20 88 88 WSW 8 13 29.94 1014 7 11 N/A
9:47 am 09:47 Partly Cloudy 72 22 68 20 88 88 W 8 13 29.97 1015 10 16 N/A
10:08 am 10:08 Partly Cloudy 73 23 68 20 83 83 W 9 15 29.97 1015 10 16 N/A
10:27 am 10:27 Sunny 75 24 68 20 78 78 W 12 19 29.97 1015 10 16 N/A
10:47 am 10:47 Sunny 75 24 68 20 78 78 W 8 13 29.97 1015 10 16 N/A
11:08 am 11:08 Sunny 77 25 68 20 74 74 W 8 13 29.97 1015 10 16 N/A
11:27 am 11:27 Sunny 77 25 66 19 69 69 W 10 17 29.97 1015 10 16 N/A
11:47 am 11:47 Sunny 77 25 68 20 74 74 W 12 19 29.97 1015 10 16 N/A
12:08 pm 12:08 Partly Cloudy 79 26 68 20 70 70 WNW 13 20 29.97 1015 10 16 N/A
12:27 pm 12:27 Partly Cloudy 79 26 66 19 65 65 W 8 13 29.97 1015 10 16 N/A
12:47 pm 12:47 Partly Cloudy 79 26 66 19 65 65 W 13 20 29.97 1015 10 16 N/A
1:08 pm 13:08 Partly Cloudy 79 26 66 19 65 65 W 13 20 29.97 1015 10 16 N/A
1:27 pm 13:27 Partly Cloudy 79 26 64 18 61 61 W 13 20 29.97 1015 10 16 N/A
1:47 pm 13:47 Partly Cloudy 79 26 64 18 61 61 W 13 20 29.97 1015 10 16 N/A
2:07 pm 14:07 Partly Cloudy 79 26 64 18 61 61 W 12 19 29.97 1015 10 16 N/A
2:27 pm 14:27 Partly Cloudy 81 27 64 18 58 58 W 12 19 29.97 1015 10 16 N/A
2:47 pm 14:47 Partly Cloudy 81 27 64 18 58 58 WSW 13 20 29.97 1015 10 16 N/A
3:07 pm 15:07 Partly Cloudy 81 27 64 18 58 58 WSW 10 17 29.97 1015 10 16 N/A
3:27 pm 15:27 Mostly Cloudy 81 27 66 19 62 62 W 12 19 29.97 1015 10 16 N/A
3:48 pm 15:48 Partly Cloudy 82 28 66 19 58 58 WNW 12 19 29.97 1015 10 16 N/A
4:07 pm 16:07 Mostly Cloudy 82 28 64 18 55 55 WSW 10 17 29.94 1014 10 16 N/A
4:27 pm 16:27 Partly Cloudy 82 28 64 18 55 55 W 10 17 29.94 1014 10 16 N/A
4:48 pm 16:48 Partly Cloudy 82 28 64 18 55 55 WNW 13 20 29.94 1014 10 16 N/A
5:07 pm 17:07 Partly Cloudy 82 28 64 18 55 55 W 15 24 29.94 1014 10 16 N/A
5:27 pm 17:27 Sunny 82 28 63 17 51 51 W 9 15 29.94 1014 10 16 N/A
5:48 pm 17:48 Partly Cloudy 81 27 63 17 54 54 WNW 13 20 29.94 1014 10 16 N/A
6:07 pm 18:07 Partly Cloudy 82 28 61 16 48 48 WNW 14 22 29.94 1014 10 16 N/A
6:27 pm 18:27 Sunny 82 28 63 17 51 51 WNW 13 20 29.94 1014 10 16 N/A
6:48 pm 18:48 Sunny 81 27 61 16 51 51 WNW 10 17 29.94 1014 10 16 N/A
7:07 pm 19:07 Partly Cloudy 81 27 61 16 51 51 WNW 14 22 29.97 1015 10 16 N/A
7:27 pm 19:27 Partly Cloudy 81 27 63 17 54 54 W 9 15 29.97 1015 10 16 N/A
7:47 pm 19:47 Sunny 81 27 63 17 54 54 W 8 13 29.97 1015 10 16 N/A
8:07 pm 20:07 Partly Cloudy 79 26 63 17 58 58 W 7 11 29.97 1015 10 16 N/A
8:27 pm 20:27 Partly Cloudy 77 25 63 17 61 61 W 6 9 29.97 1015 10 16 N/A
8:47 pm 20:47 Mostly Cloudy 75 24 64 18 69 69 W 6 9 29.97 1015 10 16 N/A
9:07 pm 21:07 Mostly Cloudy 75 24 64 18 69 69 W 5 7 29.97 1015 10 16 N/A
9:27 pm 21:27 Cloudy 75 24 64 18 69 69 W 6 9 29.97 1015 10 16 N/A
9:47 pm 21:47 Mostly Cloudy 73 23 63 17 69 69 W 5 7 30.00 1016 10 16 N/A
10:07 pm 22:07 Partly Cloudy 73 23 64 18 74 74 N N/A 30.00 1016 10 16 N/A
10:28 pm 22:28 Partly Cloudy 73 23 63 17 69 69 WNW 5 7 30.00 1016 10 16 N/A
10:47 pm 22:47 Clear 70 21 63 17 78 78 WNW 3 6 30.00 1016 10 16 N/A
11:07 pm 23:07 Clear 70 21 64 18 83 83 W 5 7 30.00 1016 10 16 N/A
11:28 pm 23:28 Clear 70 21 63 17 78 78 WNW 6 9 30.06 1018 10 16 N/A
11:47 pm 23:47 Clear 68 20 64 18 88 88 SW 3 6 30.06 1018 10 16 N/A

Powered by AerisWeather